Location: Aalen
(48.8330°N, 10.1000°E)
Time: 18:55:31
(UTC+02:00)

Transit 4A - Pass Details

Date: 08 August 2021
Orbit: 871 x 974 km, 66.8° (Epoch: 16 September)

Event Time Altitude Azimuth Distance (km) Brightness Sun altitude
Rises 03:25:43 0° 294° (WNW) 3,467 10.8 -19.8°
Reaches altitude 10° 03:29:36 10° 320° (NW) 2,527 10.4 -19.4°
Maximum altitude 03:32:32 14° 350° (N) 2,259 10.5 -19.2°
Drops below altitude 10° 03:35:29 10° 21° (NNE) 2,535 11.4 -18.9°
Sets 03:39:24 0° 46° (NE) 3,486 12.4 -18.6°
